Weather History for KHDE - June, 2013

Change the Weather History Date:

Friday, June 28, 2013

  Actual Average (KEAR) Record (KEAR)
Temperature  
Mean Temperature 76 °F 73 °F  
Max Temperature 87 °F 86 °F - ()
Min Temperature 66 °F 61 °F - ()
Degree Days  
Heating Degree Days 0 0  
Month to date heating degree days 36  
Since 1 June heating degree days 36  
Cooling Degree Days 12 9  
Growing Degree Days 26 (Base 50)    
Moisture  
Dew Point 59 °F    
Average Humidity 58    
Maximum Humidity 89    
Minimum Humidity 31    
Precipitation  
Precipitation 0.00 in - - ()
Sea Level Pressure  
Sea Level Pressure 30.09 in    
Wind  
Wind Speed 7 mph (NNW)    
Max Wind Speed 16 mph    
Max Gust Speed 22 mph    
Visibility 10 miles    
Events      
T = Trace of Precipitation, MM = Missing Value Source: NWS Daily Summary

Daily Weather History Graph

Daily Weather History Graph

Search for Another Location

Airport or City:

Trip Planner

Search our weather history database for the weather conditions in past years. The results will help you decide how hot, cold, wet, or windy it might be!

Date:

Astronomy

Jun. 28, 2013 Rise Set
Actual Time 6:09 AM CDT 9:11 PM CDT
Civil Twilight 5:36 AM CDT 9:44 PM CDT
Nautical Twilight 4:54 AM CDT 10:26 PM CDT
Astronomical Twilight 4:04 AM CDT 11:16 PM CDT
Moon 12:08 AM CDT (6/28) 12:20 PM CDT (6/28)
Length of Visible Light 16h 08m
Length of Day
15h 02m
Waning Gibbous, 66% of the Moon is Illuminated
Jun 28
Waning Gibbous
Jun 29
Last Quarter
Jul 8
New
Jul 15
First Quarter
Jul 22
Full

Hourly Weather History & Observations

Time (CDT) Temp. Heat Index Dew Point Humidity Pressure Visibility Wind Dir Wind Speed Gust Speed Precip Events Conditions
12:15 AM 71.6 °F - 64.9 °F 79% 30.09 in 10.0 mi SSE 5.8 mph - N/A   Clear
12:35 AM 71.6 °F - 64.9 °F 79% 30.09 in 10.0 mi South 4.6 mph - N/A   Clear
12:55 AM 67.6 °F - 63.9 °F 88% 30.10 in 10.0 mi Calm Calm - N/A   Clear
1:35 AM 68.9 °F - 64.0 °F 84% 30.10 in 10.0 mi West 4.6 mph - N/A   Clear
1:55 AM 67.6 °F - 64.4 °F 89% 30.10 in 10.0 mi West 5.8 mph - N/A   Clear
2:15 AM 68.0 °F - 64.0 °F 87% 30.09 in 10.0 mi West 5.8 mph - N/A   Clear
2:35 AM 68.2 °F - 64.2 °F 87% 30.09 in 10.0 mi West 3.5 mph - N/A   Clear
2:55 AM 67.8 °F - 63.9 °F 87% 30.09 in 10.0 mi West 8.1 mph - N/A   Clear
3:15 AM 66.9 °F - 63.5 °F 89% 30.09 in 10.0 mi WNW 5.8 mph - N/A   Clear
3:35 AM 67.8 °F - 63.9 °F 87% 30.09 in 10.0 mi WSW 3.5 mph - N/A   Clear
3:55 AM 68.0 °F - 64.4 °F 88% 30.09 in 10.0 mi WNW 6.9 mph - N/A   Clear
4:15 AM 68.5 °F - 64.6 °F 87% 30.09 in 10.0 mi WNW 9.2 mph - N/A   Clear
4:35 AM 68.0 °F - 63.9 °F 87% 30.09 in 10.0 mi NW 6.9 mph - N/A   Clear
4:55 AM 67.8 °F - 64.2 °F 88% 30.10 in 10.0 mi WNW 5.8 mph - N/A   Clear
5:15 AM 66.7 °F - 63.5 °F 89% 30.09 in 10.0 mi WNW 5.8 mph - N/A   Clear
5:35 AM 67.1 °F - 63.9 °F 89% 30.10 in 10.0 mi WNW 4.6 mph - N/A   Scattered Clouds
5:55 AM 67.1 °F - 63.7 °F 89% 30.10 in 10.0 mi WNW 5.8 mph - N/A   Scattered Clouds
6:15 AM 67.1 °F - 63.7 °F 89% 30.10 in 10.0 mi WNW 5.8 mph - N/A   Scattered Clouds
6:35 AM 67.6 °F - 64.0 °F 88% 30.12 in 10.0 mi NW 5.8 mph - N/A   Clear
6:55 AM 68.4 °F - 63.9 °F 85% 30.12 in 10.0 mi NW 5.8 mph - N/A   Clear
7:55 AM 71.8 °F - 64.6 °F 78% 30.13 in 10.0 mi NNW 8.1 mph - N/A   Clear
8:15 AM 73.2 °F - 64.2 °F 73% 30.14 in 10.0 mi NNW 6.9 mph - N/A   Clear
8:35 AM 74.5 °F - 62.6 °F 66% 30.14 in 10.0 mi North 9.2 mph - N/A   Clear
8:55 AM 75.6 °F - 61.5 °F 62% 30.15 in 10.0 mi North 9.2 mph - N/A   Clear
9:15 AM 77.0 °F - 61.7 °F 59% 30.14 in 10.0 mi North 10.4 mph - N/A   Clear
9:35 AM 78.1 °F - 58.6 °F 51% 30.14 in 10.0 mi North 10.4 mph - N/A   Clear
9:55 AM 79.0 °F - 57.2 °F 47% 30.14 in 10.0 mi North 10.4 mph - N/A   Clear
10:15 AM 79.7 °F - 56.5 °F 45% 30.14 in 10.0 mi NNE 12.7 mph - N/A   Clear
10:35 AM 80.2 °F 80.7 °F 58.1 °F 47% 30.15 in 10.0 mi North 11.5 mph - N/A   Clear
10:55 AM 80.6 °F 80.7 °F 57.0 °F 44% 30.14 in 10.0 mi North 10.4 mph - N/A   Clear
11:15 AM 80.8 °F 80.8 °F 56.5 °F 43% 30.14 in 10.0 mi North 10.4 mph - N/A   Clear
11:35 AM 81.9 °F 81.4 °F 55.9 °F 41% 30.14 in 10.0 mi North 10.4 mph - N/A   Clear
11:55 AM 81.9 °F 81.2 °F 54.7 °F 39% 30.14 in 10.0 mi NNW 10.4 mph 16.1 mph N/A   Clear
12:15 PM 83.3 °F 82.6 °F 56.5 °F 40% 30.14 in 10.0 mi North 12.7 mph 18.4 mph N/A   Clear
12:35 PM 83.5 °F 82.6 °F 55.8 °F 39% 30.13 in 10.0 mi North 13.8 mph 18.4 mph N/A   Clear
12:55 PM 83.5 °F 82.2 °F 54.0 °F 36% 30.13 in 10.0 mi NW 6.9 mph - N/A   Clear
1:15 PM 85.1 °F 83.6 °F 54.7 °F 35% 30.12 in 10.0 mi NNW 10.4 mph 18.4 mph N/A   Clear
1:35 PM 84.9 °F 83.6 °F 55.0 °F 36% 30.12 in 10.0 mi NNW 11.5 mph 20.7 mph N/A   Clear
1:55 PM 85.1 °F - 52.5 °F 32% 30.10 in 10.0 mi North 15.0 mph 21.9 mph N/A   Clear
2:15 PM 85.3 °F 83.6 °F 54.1 °F 34% 30.10 in 10.0 mi North 12.7 mph - N/A   Clear
2:35 PM 85.8 °F 84.2 °F 54.3 °F 34% 30.09 in 10.0 mi North 10.4 mph - N/A   Clear
2:55 PM 86.2 °F - 52.7 °F 32% 30.09 in 10.0 mi North 11.5 mph 17.3 mph N/A   Clear
3:15 PM 86.2 °F 84.4 °F 54.1 °F 33% 30.09 in 10.0 mi North 13.8 mph 20.7 mph N/A   Clear
3:35 PM 86.2 °F 84.4 °F 54.0 °F 33% 30.08 in 10.0 mi North 15.0 mph 21.9 mph N/A   Clear
3:55 PM 86.9 °F 85.1 °F 54.1 °F 33% 30.08 in 10.0 mi North 10.4 mph 17.3 mph N/A   Clear
4:15 PM 87.3 °F 85.5 °F 54.5 °F 33% 30.07 in 10.0 mi North 12.7 mph 17.3 mph N/A   Clear
4:35 PM 86.9 °F 84.8 °F 53.2 °F 31% 30.07 in 10.0 mi North 9.2 mph 21.9 mph N/A   Clear
4:55 PM 86.9 °F - 52.5 °F 31% 30.06 in 10.0 mi North 15.0 mph 20.7 mph N/A   Clear
5:15 PM 86.7 °F - 52.3 °F 31% 30.06 in 10.0 mi North 16.1 mph 21.9 mph N/A   Clear
5:35 PM 86.9 °F 84.9 °F 53.6 °F 32% 30.06 in 10.0 mi North 11.5 mph 19.6 mph N/A   Clear
5:55 PM 86.9 °F 84.9 °F 53.4 °F 32% 30.05 in 10.0 mi North 11.5 mph 18.4 mph N/A   Clear
6:15 PM 86.2 °F 84.5 °F 55.0 °F 34% 30.05 in 10.0 mi North 10.4 mph - N/A   Clear
6:35 PM 85.8 °F 84.2 °F 54.5 °F 34% 30.04 in 10.0 mi NNE 10.4 mph - N/A   Clear
6:55 PM 85.1 °F 83.5 °F 54.1 °F 34% 30.04 in 10.0 mi North 11.5 mph - N/A   Clear
7:15 PM 84.2 °F 83.0 °F 55.0 °F 37% 30.04 in 10.0 mi North 9.2 mph - N/A   Clear
7:35 PM 83.3 °F 82.2 °F 54.5 °F 37% 30.05 in 10.0 mi North 10.4 mph - N/A   Clear
7:55 PM 82.9 °F 82.0 °F 55.0 °F 38% 30.04 in 10.0 mi NNE 8.1 mph - N/A   Clear
8:15 PM 80.8 °F 81.1 °F 58.3 °F 46% 30.05 in 10.0 mi NNE 6.9 mph - N/A   Clear
8:35 PM 78.4 °F - 57.4 °F 48% 30.04 in 10.0 mi NNE 6.9 mph - N/A   Clear
8:55 PM 75.7 °F - 57.2 °F 52% 30.05 in 10.0 mi North 6.9 mph - N/A   Clear
9:15 PM 73.4 °F - 59.4 °F 61% 30.06 in 10.0 mi North 5.8 mph - N/A   Clear
9:35 PM 71.1 °F - 59.4 °F 66% 30.06 in 10.0 mi North 8.1 mph - N/A   Clear
9:55 PM 70.3 °F - 59.0 °F 67% 30.06 in 10.0 mi NNE 5.8 mph - N/A   Clear
10:15 PM 69.3 °F - 59.2 °F 70% 30.06 in 10.0 mi NNE 4.6 mph - N/A   Clear
10:35 PM 69.8 °F - 58.8 °F 68% 30.06 in 10.0 mi Calm Calm - N/A   Clear
10:55 PM 68.4 °F - 58.3 °F 70% 30.06 in 10.0 mi North 3.5 mph - N/A   Clear
11:15 PM 67.3 °F - 58.3 °F 73% 30.06 in 10.0 mi North 3.5 mph - N/A   Clear
11:35 PM 66.6 °F - 58.1 °F 74% 30.06 in 10.0 mi North 5.8 mph - N/A   Clear
11:55 PM 66.0 °F - 58.1 °F 76% 30.06 in 10.0 mi North 8.1 mph - N/A   Clear